Time,TemperatureF,DewpointF,PressureIn,WindDirection,WindDirectionDegrees,WindSpeedMPH,WindSpeedGustMPH,Humidity,HourlyPrecipIn,Conditions,Clouds,dailyrainin,SoftwareType,DateUTC
2013-04-28 00:01:00,54.4,50.9,29.66,ENE,68,0.0,1.8,88,0.00,,,0.00,WUHU216HW,2013-04-28 07:01:00,
2013-04-28 00:06:00,54.5,51.0,29.66,ENE,68,1.1,1.1,88,0.00,,,0.00,WUHU216HW,2013-04-28 07:06:00,
2013-04-28 00:11:00,54.4,50.9,29.66,NE,45,0.7,1.1,88,0.00,,,0.00,WUHU216HW,2013-04-28 07:11:00,
2013-04-28 00:16:00,54.4,50.9,29.66,NE,45,0.7,1.6,88,0.00,,,0.00,WUHU216HW,2013-04-28 07:16:00,
2013-04-28 00:21:00,54.4,50.9,29.66,NE,45,0.7,1.6,88,0.00,,,0.00,WUHU216HW,2013-04-28 07:21:00,
2013-04-28 00:26:00,54.2,50.7,29.66,ENE,68,1.1,2.0,88,0.00,,,0.00,WUHU216HW,2013-04-28 07:26:00,
2013-04-28 00:31:00,54.4,50.9,29.66,ENE,68,0.4,2.0,88,0.00,,,0.00,WUHU216HW,2013-04-28 07:31:00,
2013-04-28 00:36:00,54.4,50.9,29.66,NNE,23,1.1,1.1,88,0.00,,,0.00,WUHU216HW,2013-04-28 07:36:00,
2013-04-28 00:41:00,54.4,50.9,29.66,NE,45,0.2,1.3,88,0.00,,,0.00,WUHU216HW,2013-04-28 07:41:00,
2013-04-28 00:46:00,54.5,51.0,29.66,NNE,23,0.4,1.3,88,0.00,,,0.00,WUHU216HW,2013-04-28 07:46:00,
2013-04-28 00:51:00,54.5,51.0,29.65,NE,45,0.4,0.9,88,0.00,,,0.00,WUHU216HW,2013-04-28 07:51:00,
2013-04-28 00:56:00,54.4,50.9,29.65,NE,45,0.0,0.9,88,0.00,,,0.00,WUHU216HW,2013-04-28 07:56:00,
2013-04-28 01:01:00,54.4,50.9,29.65,NE,45,0.7,0.9,88,0.00,,,0.00,WUHU216HW,2013-04-28 08:01:00,
2013-04-28 01:06:00,54.4,50.9,29.65,ENE,68,0.9,0.9,88,0.00,,,0.00,WUHU216HW,2013-04-28 08:06:00,
2013-04-28 01:11:00,54.4,50.9,29.66,East,90,1.1,1.1,88,0.00,,,0.00,WUHU216HW,2013-04-28 08:11:00,
2013-04-28 01:16:00,54.2,51.0,29.65,East,90,0.9,2.0,89,0.00,,,0.00,WUHU216HW,2013-04-28 08:16:00,
2013-04-28 01:21:00,54.2,51.0,29.65,East,90,1.1,2.0,89,0.00,,,0.00,WUHU216HW,2013-04-28 08:21:00,
2013-04-28 01:26:00,54.4,51.2,29.66,ESE,113,1.1,2.0,89,0.00,,,0.00,WUHU216HW,2013-04-28 08:26:00,
2013-04-28 01:31:00,54.4,51.2,29.65,ENE,68,1.6,2.5,89,0.00,,,0.00,WUHU216HW,2013-04-28 08:31:00,
2013-04-28 01:36:00,54.5,51.3,29.66,ESE,113,1.8,2.5,89,0.00,,,0.00,WUHU216HW,2013-04-28 08:36:00,
2013-04-28 01:41:00,54.7,51.5,29.66,East,90,1.3,2.2,89,0.00,,,0.00,WUHU216HW,2013-04-28 08:41:00,
2013-04-28 01:46:00,54.7,51.5,29.66,ESE,113,1.1,2.2,89,0.00,,,0.00,WUHU216HW,2013-04-28 08:46:00,
2013-04-28 01:51:00,55.1,51.8,29.66,SSE,158,1.1,1.8,89,0.00,,,0.00,WUHU216HW,2013-04-28 08:51:00,
2013-04-28 01:56:00,55.1,51.8,29.66,SE,135,2.0,3.8,89,0.00,,,0.00,WUHU216HW,2013-04-28 08:56:00,
2013-04-28 02:01:00,55.3,52.0,29.66,SE,135,0.4,5.1,89,0.00,,,0.00,WUHU216HW,2013-04-28 09:01:00,
2013-04-28 02:06:00,55.3,52.4,29.66,East,90,4.0,5.1,90,0.00,,,0.00,WUHU216HW,2013-04-28 09:06:00,
2013-04-28 02:11:00,55.3,52.7,29.66,ESE,113,2.7,4.7,91,0.00,,,0.00,WUHU216HW,2013-04-28 09:11:00,
2013-04-28 02:16:00,55.3,52.7,29.66,ESE,113,1.1,4.3,91,0.00,,,0.00,WUHU216HW,2013-04-28 09:16:00,
2013-04-28 02:21:00,55.3,52.7,29.65,East,90,0.4,2.7,91,0.00,,,0.00,WUHU216HW,2013-04-28 09:21:00,
2013-04-28 02:26:00,55.3,52.7,29.66,SE,135,0.0,2.5,91,0.00,,,0.00,WUHU216HW,2013-04-28 09:26:00,
2013-04-28 02:31:00,55.3,52.7,29.65,SW,225,0.0,1.3,91,0.00,,,0.00,WUHU216HW,2013-04-28 09:31:00,
2013-04-28 02:36:00,55.4,52.8,29.65,NE,45,0.2,0.4,91,0.00,,,0.00,WUHU216HW,2013-04-28 09:36:00,
2013-04-28 02:41:00,55.6,53.0,29.65,North,0,0.9,1.1,91,0.00,,,0.00,WUHU216HW,2013-04-28 09:41:00,
2013-04-28 02:46:00,55.6,53.0,29.65,ENE,68,1.3,1.3,91,0.00,,,0.00,WUHU216HW,2013-04-28 09:46:00,
2013-04-28 02:51:00,55.6,53.0,29.65,East,90,0.4,2.5,91,0.00,,,0.00,WUHU216HW,2013-04-28 09:51:00,
2013-04-28 02:56:00,55.8,53.2,29.65,ENE,68,0.9,2.5,91,0.00,,,0.00,WUHU216HW,2013-04-28 09:56:00,
2013-04-28 03:01:00,55.8,53.2,29.65,East,90,1.1,1.8,91,0.00,,,0.00,WUHU216HW,2013-04-28 10:01:00,
2013-04-28 03:06:00,55.8,53.2,29.65,ESE,113,0.0,1.8,91,0.00,,,0.00,WUHU216HW,2013-04-28 10:06:00,
2013-04-28 03:11:00,55.8,53.2,29.65,ESE,113,0.7,1.6,91,0.00,,,0.00,WUHU216HW,2013-04-28 10:11:00,
2013-04-28 03:16:00,55.8,53.2,29.65,SE,135,0.4,4.0,91,0.00,,,0.00,WUHU216HW,2013-04-28 10:16:00,
2013-04-28 03:21:00,55.8,53.2,29.65,South,180,1.6,4.0,91,0.00,,,0.00,WUHU216HW,2013-04-28 10:21:00,
2013-04-28 03:26:00,56.0,53.4,29.64,SE,135,0.7,2.5,91,0.00,,,0.00,WUHU216HW,2013-04-28 10:26:00,
2013-04-28 03:31:00,56.0,53.4,29.64,SW,225,1.1,2.5,91,0.00,,,0.00,WUHU216HW,2013-04-28 10:31:00,
2013-04-28 03:36:00,56.2,53.6,29.65,East,90,1.8,2.9,91,0.00,,,0.00,WUHU216HW,2013-04-28 10:36:00,
2013-04-28 03:41:00,56.2,53.6,29.65,SE,135,0.9,2.9,91,0.00,,,0.00,WUHU216HW,2013-04-28 10:41:00,
2013-04-28 03:46:00,56.2,53.6,29.65,ENE,68,0.0,2.5,91,0.00,,,0.00,WUHU216HW,2013-04-28 10:46:00,
2013-04-28 03:51:00,56.2,53.6,29.65,SSE,158,0.0,2.5,91,0.00,,,0.00,WUHU216HW,2013-04-28 10:51:00,
2013-04-28 03:56:00,56.2,53.6,29.64,East,90,0.7,1.6,91,0.00,,,0.00,WUHU216HW,2013-04-28 10:56:00,
2013-04-28 04:01:00,56.2,53.6,29.65,SE,135,0.0,1.1,91,0.00,,,0.00,WUHU216HW,2013-04-28 11:01:00,
2013-04-28 04:06:00,56.2,53.6,29.65,ESE,113,0.2,1.1,91,0.00,,,0.00,WUHU216HW,2013-04-28 11:06:00,
2013-04-28 04:11:00,56.2,53.6,29.65,ENE,68,0.0,1.3,91,0.00,,,0.00,WUHU216HW,2013-04-28 11:11:00,
2013-04-28 04:16:00,56.2,53.6,29.65,East,90,0.2,1.3,91,0.00,,,0.00,WUHU216HW,2013-04-28 11:16:00,
2013-04-28 04:21:00,56.3,53.7,29.65,South,180,1.1,1.8,91,0.00,,,0.00,WUHU216HW,2013-04-28 11:21:00,
2013-04-28 04:26:00,56.3,53.7,29.65,SE,135,0.2,1.8,91,0.00,,,0.00,WUHU216HW,2013-04-28 11:26:00,
2013-04-28 04:31:00,56.5,53.9,29.65,ESE,113,0.0,1.3,91,0.00,,,0.00,WUHU216HW,2013-04-28 11:31:00,
2013-04-28 04:36:00,56.5,53.9,29.65,SSE,158,1.1,2.5,91,0.00,,,0.00,WUHU216HW,2013-04-28 11:36:00,
2013-04-28 04:41:00,56.5,53.9,29.64,ESE,113,0.4,2.5,91,0.00,,,0.00,WUHU216HW,2013-04-28 11:41:00,
2013-04-28 04:46:00,56.5,53.9,29.64,SSE,158,1.1,3.1,91,0.00,,,0.00,WUHU216HW,2013-04-28 11:46:00,
2013-04-28 04:51:00,56.5,53.9,29.64,SW,225,0.9,3.1,91,0.00,,,0.00,WUHU216HW,2013-04-28 11:51:00,
2013-04-28 04:56:00,56.5,53.6,29.64,SW,225,2.0,2.5,90,0.00,,,0.00,WUHU216HW,2013-04-28 11:56:00,
2013-04-28 05:01:00,56.5,53.6,29.64,SW,225,1.8,3.6,90,0.00,,,0.00,WUHU216HW,2013-04-28 12:01:00,
2013-04-28 05:06:00,56.5,53.6,29.64,SW,225,3.4,3.6,90,0.00,,,0.00,WUHU216HW,2013-04-28 12:06:00,
2013-04-28 05:11:00,56.5,53.6,29.64,ENE,68,0.0,3.4,90,0.00,,,0.00,WUHU216HW,2013-04-28 12:11:00,
2013-04-28 05:16:00,56.5,53.6,29.64,East,90,0.4,3.4,90,0.00,,,0.00,WUHU216HW,2013-04-28 12:16:00,
2013-04-28 05:21:00,56.5,53.6,29.64,East,90,0.0,1.1,90,0.00,,,0.00,WUHU216HW,2013-04-28 12:21:00,
2013-04-28 05:26:00,56.5,53.6,29.64,SSW,203,0.7,1.3,90,0.00,,,0.00,WUHU216HW,2013-04-28 12:26:00,
2013-04-28 05:31:00,56.5,53.6,29.64,South,180,1.3,1.8,90,0.00,,,0.00,WUHU216HW,2013-04-28 12:31:00,
2013-04-28 05:36:00,56.5,53.6,29.64,SSW,203,1.1,3.4,90,0.00,,,0.00,WUHU216HW,2013-04-28 12:36:00,
2013-04-28 05:41:00,56.5,53.6,29.64,SE,135,1.3,3.4,90,0.00,,,0.00,WUHU216HW,2013-04-28 12:41:00,
2013-04-28 05:46:00,56.5,53.6,29.64,SW,225,0.0,2.7,90,0.00,,,0.00,WUHU216HW,2013-04-28 12:46:00,
2013-04-28 05:51:00,56.5,53.6,29.64,WSW,248,0.9,1.6,90,0.00,,,0.00,WUHU216HW,2013-04-28 12:51:00,
2013-04-28 05:56:00,56.5,53.6,29.64,South,180,0.7,1.8,90,0.00,,,0.00,WUHU216HW,2013-04-28 12:56:00,
2013-04-28 06:01:00,56.5,53.6,29.64,ESE,113,1.1,2.2,90,0.00,,,0.00,WUHU216HW,2013-04-28 13:01:00,
2013-04-28 06:06:00,56.5,53.6,29.64,ESE,113,0.2,2.2,90,0.00,,,0.00,WUHU216HW,2013-04-28 13:06:00,
2013-04-28 06:11:00,56.3,53.5,29.64,SE,135,0.4,2.0,90,0.00,,,0.00,WUHU216HW,2013-04-28 13:11:00,
2013-04-28 06:16:00,56.5,53.6,29.64,SW,225,0.9,1.8,90,0.00,,,0.00,WUHU216HW,2013-04-28 13:16:00,
2013-04-28 06:21:00,56.5,53.3,29.64,SSW,203,2.5,3.4,89,0.00,,,0.00,WUHU216HW,2013-04-28 13:21:00,
2013-04-28 06:26:00,56.5,53.3,29.64,SSW,203,2.5,3.8,89,0.00,,,0.00,WUHU216HW,2013-04-28 13:26:00,
2013-04-28 06:31:00,56.5,53.3,29.64,WSW,248,0.0,3.8,89,0.00,,,0.00,WUHU216HW,2013-04-28 13:31:00,
2013-04-28 06:36:00,56.5,53.3,29.64,SW,225,0.2,2.5,89,0.00,,,0.00,WUHU216HW,2013-04-28 13:36:00,
2013-04-28 06:41:00,56.3,53.1,29.64,ENE,68,0.2,1.8,89,0.00,,,0.00,WUHU216HW,2013-04-28 13:41:00,
2013-04-28 06:46:00,56.3,53.1,29.64,WSW,248,0.2,1.1,89,0.00,,,0.00,WUHU216HW,2013-04-28 13:46:00,
2013-04-28 06:51:00,56.5,53.3,29.65,SW,225,0.0,1.3,89,0.00,,,0.00,WUHU216HW,2013-04-28 13:51:00,
2013-04-28 06:56:00,56.5,53.3,29.65,SE,135,2.5,2.5,89,0.00,,,0.00,WUHU216HW,2013-04-28 13:56:00,
2013-04-28 07:01:00,56.5,53.3,29.65,SSW,203,2.0,3.8,89,0.00,,,0.00,WUHU216HW,2013-04-28 14:01:00,
2013-04-28 07:06:00,56.5,53.3,29.65,SE,135,0.4,3.8,89,0.00,,,0.00,WUHU216HW,2013-04-28 14:06:00,
2013-04-28 07:11:00,56.5,53.3,29.65,SE,135,1.1,2.0,89,0.00,,,0.00,WUHU216HW,2013-04-28 14:11:00,
2013-04-28 07:16:00,56.7,53.5,29.65,SSW,203,2.5,2.5,89,0.00,,,0.00,WUHU216HW,2013-04-28 14:16:00,
2013-04-28 07:21:00,56.7,53.5,29.65,SSW,203,1.3,2.9,89,0.00,,,0.00,WUHU216HW,2013-04-28 14:21:00,
2013-04-28 07:26:00,56.7,53.5,29.65,SSE,158,1.1,2.9,89,0.00,,,0.00,WUHU216HW,2013-04-28 14:26:00,
2013-04-28 07:31:00,56.7,53.5,29.65,SSW,203,0.9,4.0,89,0.00,,,0.00,WUHU216HW,2013-04-28 14:31:00,
2013-04-28 07:36:00,56.7,53.5,29.65,South,180,0.4,4.0,89,0.00,,,0.00,WUHU216HW,2013-04-28 14:36:00,
2013-04-28 07:41:00,56.9,53.6,29.65,ESE,113,1.1,1.8,89,0.00,,,0.00,WUHU216HW,2013-04-28 14:41:00,
2013-04-28 07:46:00,56.9,53.6,29.65,SW,225,2.0,2.7,89,0.00,,,0.00,WUHU216HW,2013-04-28 14:46:00,
2013-04-28 07:51:00,56.9,53.6,29.65,WNW,293,0.4,2.9,89,0.00,,,0.00,WUHU216HW,2013-04-28 14:51:00,
2013-04-28 07:56:00,56.9,53.6,29.65,SW,225,1.1,2.9,89,0.00,,,0.00,WUHU216HW,2013-04-28 14:56:00,
2013-04-28 08:01:00,56.9,53.6,29.65,WSW,248,0.4,1.3,89,0.00,,,0.00,WUHU216HW,2013-04-28 15:01:00,
2013-04-28 08:06:00,57.1,53.8,29.65,SW,225,0.4,2.5,89,0.00,,,0.00,WUHU216HW,2013-04-28 15:06:00,
2013-04-28 08:11:00,57.2,54.0,29.65,WSW,248,3.1,3.1,89,0.00,,,0.00,WUHU216HW,2013-04-28 15:11:00,
2013-04-28 08:16:00,57.2,54.0,29.65,WSW,248,1.8,3.1,89,0.00,,,0.00,WUHU216HW,2013-04-28 15:16:00,
2013-04-28 08:21:00,57.2,54.0,29.65,WSW,248,0.9,3.1,89,0.00,,,0.00,WUHU216HW,2013-04-28 15:21:00,
2013-04-28 08:26:00,57.2,54.0,29.65,SSW,203,0.0,3.1,89,0.00,,,0.00,WUHU216HW,2013-04-28 15:26:00,
2013-04-28 08:31:00,57.1,53.8,29.65,NNW,338,0.2,1.6,89,0.00,,,0.00,WUHU216HW,2013-04-28 15:31:00,
2013-04-28 08:36:00,57.2,54.0,29.65,NNW,338,0.0,1.3,89,0.00,,,0.00,WUHU216HW,2013-04-28 15:36:00,
2013-04-28 08:41:00,57.4,54.2,29.65,NW,315,0.4,1.8,89,0.00,,,0.00,WUHU216HW,2013-04-28 15:41:00,
2013-04-28 08:46:00,57.6,54.4,29.65,SW,225,0.9,1.8,89,0.00,,,0.00,WUHU216HW,2013-04-28 15:46:00,
2013-04-28 08:51:00,58.0,54.5,29.65,WSW,248,1.8,3.4,88,0.00,,,0.00,WUHU216HW,2013-04-28 15:51:00,
2013-04-28 08:56:00,58.1,54.6,29.65,SE,135,0.0,3.4,88,0.00,,,0.00,WUHU216HW,2013-04-28 15:56:00,
2013-04-28 09:01:00,58.3,55.1,29.65,NE,45,0.0,0.7,89,0.00,,,0.00,WUHU216HW,2013-04-28 16:01:00,
2013-04-28 09:06:00,58.7,55.4,29.65,SW,225,0.9,1.8,89,0.00,,,0.00,WUHU216HW,2013-04-28 16:06:00,
2013-04-28 09:11:00,58.9,55.4,29.65,SW,225,1.8,2.7,88,0.00,,,0.00,WUHU216HW,2013-04-28 16:11:00,
2013-04-28 09:16:00,58.9,55.4,29.65,West,270,0.7,2.7,88,0.00,,,0.00,WUHU216HW,2013-04-28 16:16:00,
2013-04-28 09:21:00,59.0,55.5,29.65,WSW,248,0.0,3.6,88,0.00,,,0.00,WUHU216HW,2013-04-28 16:21:00,
2013-04-28 09:26:00,59.0,55.5,29.64,WSW,248,0.9,3.6,88,0.00,,,0.00,WUHU216HW,2013-04-28 16:26:00,
2013-04-28 09:31:00,59.4,55.5,29.65,SE,135,0.4,3.6,87,0.00,,,0.00,WUHU216HW,2013-04-28 16:31:00,
2013-04-28 09:36:00,59.6,55.7,29.65,SW,225,2.5,3.4,87,0.00,,,0.00,WUHU216HW,2013-04-28 16:36:00,
2013-04-28 09:41:00,60.1,56.3,29.64,South,180,1.3,4.0,87,0.00,,,0.00,WUHU216HW,2013-04-28 16:41:00,
2013-04-28 09:46:00,60.5,56.6,29.65,SW,225,1.3,4.0,87,0.00,,,0.00,WUHU216HW,2013-04-28 16:46:00,
2013-04-28 09:51:00,60.7,55.8,29.65,WSW,248,1.1,3.4,84,0.00,,,0.00,WUHU216HW,2013-04-28 16:51:00,
2013-04-28 09:56:00,60.7,56.2,29.65,WSW,248,3.1,4.5,85,0.00,,,0.00,WUHU216HW,2013-04-28 16:56:00,
2013-04-28 10:01:00,60.7,55.8,29.65,West,270,0.9,4.5,84,0.00,,,0.00,WUHU216HW,2013-04-28 17:01:00,
2013-04-28 10:06:00,60.3,55.4,29.65,WSW,248,4.0,4.3,84,0.00,,,0.00,WUHU216HW,2013-04-28 17:06:00,
2013-04-28 10:11:00,60.1,55.3,29.65,NNW,338,0.4,4.0,84,0.00,,,0.00,WUHU216HW,2013-04-28 17:11:00,
2013-04-28 10:16:00,60.1,55.3,29.65,SW,225,2.7,4.0,84,0.00,,,0.00,WUHU216HW,2013-04-28 17:16:00,
2013-04-28 10:21:00,60.5,55.6,29.65,North,0,2.0,2.7,84,0.00,,,0.00,WUHU216HW,2013-04-28 17:21:00,
2013-04-28 10:26:00,60.3,55.4,29.65,SE,135,0.9,2.7,84,0.00,,,0.00,WUHU216HW,2013-04-28 17:26:00,
2013-04-28 10:31:00,60.8,56.0,29.65,WSW,248,2.0,4.5,84,0.00,,,0.00,WUHU216HW,2013-04-28 17:31:00,
2013-04-28 10:36:00,61.4,56.2,29.65,SW,225,1.8,5.1,83,0.00,,,0.00,WUHU216HW,2013-04-28 17:36:00,
2013-04-28 10:41:00,61.6,56.1,29.65,West,270,1.6,5.1,82,0.00,,,0.00,WUHU216HW,2013-04-28 17:41:00,
2013-04-28 10:46:00,61.4,55.9,29.65,WSW,248,4.7,4.7,82,0.00,,,0.00,WUHU216HW,2013-04-28 17:46:00,
2013-04-28 10:51:00,61.2,56.1,29.65,West,270,1.3,4.7,83,0.00,,,0.00,WUHU216HW,2013-04-28 17:51:00,
2013-04-28 10:56:00,61.2,55.7,29.65,West,270,1.8,4.7,82,0.00,,,0.00,WUHU216HW,2013-04-28 17:56:00,
2013-04-28 11:01:00,61.0,55.9,29.65,WSW,248,1.1,4.3,83,0.00,,,0.00,WUHU216HW,2013-04-28 18:01:00,
2013-04-28 11:06:00,61.4,55.5,29.65,WSW,248,2.9,6.7,81,0.00,,,0.00,WUHU216HW,2013-04-28 18:06:00,
2013-04-28 11:11:00,61.6,55.7,29.65,West,270,2.9,6.7,81,0.00,,,0.00,WUHU216HW,2013-04-28 18:11:00,
2013-04-28 11:16:00,61.4,55.5,29.65,WSW,248,1.6,3.4,81,0.00,,,0.00,WUHU216HW,2013-04-28 18:16:00,
2013-04-28 11:21:00,61.2,55.4,29.65,West,270,2.5,3.4,81,0.00,,,0.00,WUHU216HW,2013-04-28 18:21:00,
2013-04-28 11:26:00,61.4,55.9,29.65,SW,225,4.9,4.9,82,0.00,,,0.00,WUHU216HW,2013-04-28 18:26:00,
2013-04-28 11:31:00,61.7,55.9,29.65,West,270,2.9,4.9,81,0.00,,,0.00,WUHU216HW,2013-04-28 18:31:00,
2013-04-28 11:36:00,61.9,56.1,29.65,West,270,1.6,4.9,81,0.00,,,0.00,WUHU216HW,2013-04-28 18:36:00,
2013-04-28 11:41:00,61.7,55.5,29.65,West,270,1.1,2.9,80,0.00,,,0.00,WUHU216HW,2013-04-28 18:41:00,
2013-04-28 11:46:00,61.6,55.7,29.64,WSW,248,2.5,2.9,81,0.00,,,0.00,WUHU216HW,2013-04-28 18:46:00,
2013-04-28 11:51:00,61.2,55.4,29.64,WSW,248,1.1,3.8,81,0.00,,,0.00,WUHU216HW,2013-04-28 18:51:00,
2013-04-28 11:56:00,61.4,55.5,29.64,WSW,248,3.4,4.5,81,0.00,,,0.00,WUHU216HW,2013-04-28 18:56:00,
2013-04-28 12:01:00,61.6,55.7,29.64,WNW,293,2.5,6.3,81,0.00,,,0.00,WUHU216HW,2013-04-28 19:01:00,
2013-04-28 12:06:00,61.4,55.9,29.64,West,270,2.7,6.3,82,0.00,,,0.00,WUHU216HW,2013-04-28 19:06:00,
2013-04-28 12:11:00,61.7,55.9,29.64,WSW,248,3.8,5.8,81,0.00,,,0.00,WUHU216HW,2013-04-28 19:11:00,
2013-04-28 12:16:00,61.9,56.1,29.63,SW,225,2.9,5.8,81,0.00,,,0.00,WUHU216HW,2013-04-28 19:16:00,
2013-04-28 12:21:00,62.3,56.3,29.63,SSW,203,4.5,5.4,81,0.00,,,0.00,WUHU216HW,2013-04-28 19:21:00,
2013-04-28 12:26:00,62.5,56.5,29.63,WSW,248,6.3,6.3,81,0.00,,,0.00,WUHU216HW,2013-04-28 19:26:00,
2013-04-28 12:31:00,62.5,56.2,29.63,SSW,203,5.8,6.7,80,0.00,,,0.00,WUHU216HW,2013-04-28 19:31:00,
2013-04-28 12:36:00,62.5,56.2,29.63,SW,225,2.5,7.4,80,0.00,,,0.00,WUHU216HW,2013-04-28 19:36:00,
2013-04-28 12:41:00,62.5,56.2,29.63,SSW,203,3.4,7.4,80,0.00,,,0.00,WUHU216HW,2013-04-28 19:41:00,
2013-04-28 12:46:00,62.6,56.0,29.63,SW,225,3.4,6.3,79,0.00,,,0.00,WUHU216HW,2013-04-28 19:46:00,
2013-04-28 12:51:00,63.0,56.3,29.63,WSW,248,5.1,6.3,79,0.00,,,0.00,WUHU216HW,2013-04-28 19:51:00,
2013-04-28 12:56:00,63.4,56.7,29.62,NW,315,2.5,6.3,79,0.00,,,0.00,WUHU216HW,2013-04-28 19:56:00,
2013-04-28 13:01:00,63.4,56.7,29.62,SW,225,4.7,7.2,79,0.00,,,0.00,WUHU216HW,2013-04-28 20:01:00,
2013-04-28 13:06:00,63.0,56.3,29.62,West,270,0.7,7.2,79,0.00,,,0.00,WUHU216HW,2013-04-28 20:06:00,
2013-04-28 13:11:00,63.0,56.3,29.62,SW,225,3.6,4.9,79,0.00,,,0.00,WUHU216HW,2013-04-28 20:11:00,
2013-04-28 13:16:00,63.0,56.3,29.62,SSW,203,2.9,4.9,79,0.00,,,0.00,WUHU216HW,2013-04-28 20:16:00,
2013-04-28 13:21:00,63.0,56.3,29.61,WSW,248,2.5,4.0,79,0.00,,,0.00,WUHU216HW,2013-04-28 20:21:00,
2013-04-28 13:26:00,63.4,56.7,29.61,WSW,248,2.9,6.5,79,0.00,,,0.00,WUHU216HW,2013-04-28 20:26:00,
2013-04-28 13:31:00,63.7,57.1,29.60,WSW,248,1.8,6.5,79,0.00,,,0.00,WUHU216HW,2013-04-28 20:31:00,
2013-04-28 13:36:00,63.9,56.9,29.60,SW,225,4.0,5.8,78,0.00,,,0.00,WUHU216HW,2013-04-28 20:36:00,
2013-04-28 13:41:00,63.7,57.1,29.60,SW,225,5.8,5.8,79,0.00,,,0.00,WUHU216HW,2013-04-28 20:41:00,
2013-04-28 13:46:00,64.1,57.1,29.60,SW,225,2.9,6.9,78,0.00,,,0.00,WUHU216HW,2013-04-28 20:46:00,
2013-04-28 13:51:00,63.9,56.9,29.60,NNW,338,1.1,6.9,78,0.00,,,0.00,WUHU216HW,2013-04-28 20:51:00,
2013-04-28 13:56:00,63.9,56.9,29.60,SW,225,4.5,7.6,78,0.00,,,0.00,WUHU216HW,2013-04-28 20:56:00,
2013-04-28 14:01:00,63.9,56.9,29.60,WNW,293,2.0,7.6,78,0.00,,,0.00,WUHU216HW,2013-04-28 21:01:00,
2013-04-28 14:06:00,64.1,57.1,29.60,SW,225,2.7,6.3,78,0.00,,,0.00,WUHU216HW,2013-04-28 21:06:00,
2013-04-28 14:11:00,63.5,56.5,29.60,NW,315,0.9,6.3,78,0.00,,,0.00,WUHU216HW,2013-04-28 21:11:00,
2013-04-28 14:16:00,62.8,56.2,29.60,WSW,248,1.8,4.3,79,0.00,,,0.00,WUHU216HW,2013-04-28 21:16:00,
2013-04-28 14:21:00,63.0,56.3,29.59,SW,225,2.7,5.1,79,0.00,,,0.00,WUHU216HW,2013-04-28 21:21:00,
2013-04-28 14:26:00,63.0,56.3,29.59,WSW,248,5.4,5.4,79,0.00,,,0.00,WUHU216HW,2013-04-28 21:26:00,
2013-04-28 14:31:00,63.4,56.7,29.59,WSW,248,2.0,6.9,79,0.00,,,0.00,WUHU216HW,2013-04-28 21:31:00,
2013-04-28 14:36:00,63.2,56.5,29.59,West,270,2.9,6.9,79,0.00,,,0.00,WUHU216HW,2013-04-28 21:36:00,
2013-04-28 14:41:00,63.4,56.7,29.59,West,270,1.8,5.6,79,0.00,,,0.00,WUHU216HW,2013-04-28 21:41:00,
2013-04-28 14:46:00,62.3,55.6,29.59,NW,315,1.8,5.6,79,0.00,,,0.00,WUHU216HW,2013-04-28 21:46:00,
2013-04-28 14:51:00,62.3,56.0,29.58,SW,225,3.8,4.3,80,0.00,,,0.00,WUHU216HW,2013-04-28 21:51:00,
2013-04-28 14:56:00,62.3,55.6,29.58,SW,225,3.8,4.3,79,0.00,,,0.00,WUHU216HW,2013-04-28 21:56:00,
2013-04-28 15:01:00,61.9,55.7,29.58,WSW,248,1.8,6.7,80,0.00,,,0.00,WUHU216HW,2013-04-28 22:01:00,
2013-04-28 15:06:00,61.9,55.7,29.58,SW,225,2.5,6.9,80,0.00,,,0.00,WUHU216HW,2013-04-28 22:06:00,
2013-04-28 15:11:00,62.1,55.9,29.57,West,270,1.3,6.9,80,0.00,,,0.00,WUHU216HW,2013-04-28 22:11:00,
2013-04-28 15:16:00,62.6,56.3,29.57,WSW,248,3.4,6.3,80,0.00,,,0.00,WUHU216HW,2013-04-28 22:16:00,
2013-04-28 15:21:00,62.3,55.6,29.57,SW,225,3.4,4.9,79,0.00,,,0.00,WUHU216HW,2013-04-28 22:21:00,
2013-04-28 15:26:00,61.9,55.4,29.57,North,0,2.7,5.1,79,0.00,,,0.00,WUHU216HW,2013-04-28 22:26:00,
2013-04-28 15:31:00,61.7,55.5,29.57,North,0,2.0,5.1,80,0.00,,,0.00,WUHU216HW,2013-04-28 22:31:00,
2013-04-28 15:36:00,62.1,55.5,29.56,NW,315,0.9,4.0,79,0.00,,,0.00,WUHU216HW,2013-04-28 22:36:00,
2013-04-28 15:41:00,62.1,55.5,29.56,SW,225,1.3,4.0,79,0.00,,,0.00,WUHU216HW,2013-04-28 22:41:00,
2013-04-28 15:46:00,61.9,55.4,29.56,West,270,4.0,5.6,79,0.00,,,0.00,WUHU216HW,2013-04-28 22:46:00,
2013-04-28 15:51:00,61.6,55.4,29.56,WNW,293,3.4,5.6,80,0.00,,,0.00,WUHU216HW,2013-04-28 22:51:00,
2013-04-28 15:56:00,61.6,55.4,29.56,West,270,1.1,7.8,80,0.00,,,0.00,WUHU216HW,2013-04-28 22:56:00,
2013-04-28 16:01:00,61.4,55.2,29.56,West,270,3.1,7.8,80,0.00,,,0.00,WUHU216HW,2013-04-28 23:01:00,
2013-04-28 16:06:00,61.0,55.5,29.55,West,270,2.5,4.0,82,0.00,,,0.00,WUHU216HW,2013-04-28 23:06:00,
2013-04-28 16:11:00,61.0,55.2,29.55,WSW,248,3.6,4.9,81,0.00,,,0.00,WUHU216HW,2013-04-28 23:11:00,
2013-04-28 16:16:00,61.2,55.4,29.55,WSW,248,3.6,4.9,81,0.00,,,0.00,WUHU216HW,2013-04-28 23:16:00,
2013-04-28 16:21:00,60.8,55.1,29.55,SW,225,2.7,4.5,81,0.00,,,0.00,WUHU216HW,2013-04-28 23:21:00,
2013-04-28 16:26:00,60.5,55.0,29.55,North,0,1.6,5.6,82,0.00,,,0.00,WUHU216HW,2013-04-28 23:26:00,
2013-04-28 16:31:00,60.5,55.0,29.55,WNW,293,1.8,5.6,82,0.00,,,0.00,WUHU216HW,2013-04-28 23:31:00,
2013-04-28 16:36:00,60.3,55.2,29.55,NNE,23,1.1,4.0,83,0.00,,,0.00,WUHU216HW,2013-04-28 23:36:00,
2013-04-28 16:41:00,60.5,55.4,29.55,WSW,248,3.8,5.1,83,0.00,,,0.00,WUHU216HW,2013-04-28 23:41:00,
2013-04-28 16:46:00,60.1,55.0,29.54,WSW,248,4.0,5.1,83,0.00,,,0.00,WUHU216HW,2013-04-28 23:46:00,
2013-04-28 16:51:00,59.8,54.6,29.55,NNW,338,2.5,5.1,83,0.00,,,0.00,WUHU216HW,2013-04-28 23:51:00,
2013-04-28 16:56:00,59.4,54.3,29.54,WSW,248,2.5,5.4,83,0.00,,,0.00,WUHU216HW,2013-04-28 23:56:00,
2013-04-28 17:01:00,59.4,54.5,29.54,SW,225,2.7,5.4,84,0.00,,,0.00,WUHU216HW,2013-04-29 00:01:00,
2013-04-28 17:06:00,59.4,54.5,29.54,WSW,248,2.7,5.6,84,0.00,,,0.00,WUHU216HW,2013-04-29 00:06:00,
2013-04-28 17:11:00,59.2,54.4,29.54,SW,225,4.7,5.6,84,0.00,,,0.00,WUHU216HW,2013-04-29 00:11:00,
2013-04-28 17:16:00,59.2,54.4,29.54,WSW,248,5.4,5.4,84,0.00,,,0.00,WUHU216HW,2013-04-29 00:16:00,
2013-04-28 17:21:00,58.9,54.0,29.53,NW,315,1.8,5.4,84,0.00,,,0.00,WUHU216HW,2013-04-29 00:21:00,
2013-04-28 17:26:00,58.7,54.2,29.54,WSW,248,4.5,4.5,85,0.00,,,0.00,WUHU216HW,2013-04-29 00:26:00,
2013-04-28 17:31:00,58.7,54.2,29.54,WSW,248,3.4,4.9,85,0.00,,,0.00,WUHU216HW,2013-04-29 00:31:00,
2013-04-28 17:36:00,58.9,54.4,29.53,WNW,293,1.1,4.9,85,0.00,,,0.00,WUHU216HW,2013-04-29 00:36:00,
2013-04-28 17:41:00,59.0,54.9,29.53,West,270,3.1,4.5,86,0.00,,,0.00,WUHU216HW,2013-04-29 00:41:00,
2013-04-28 17:46:00,58.7,54.8,29.53,SW,225,1.8,4.0,87,0.00,,,0.00,WUHU216HW,2013-04-29 00:46:00,
2013-04-28 17:51:00,58.3,54.5,29.53,NW,315,0.4,3.4,87,0.00,,,0.00,WUHU216HW,2013-04-29 00:51:00,
2013-04-28 17:56:00,58.3,54.5,29.53,SW,225,0.4,5.4,87,0.00,,,0.00,WUHU216HW,2013-04-29 00:56:00,
2013-04-28 18:01:00,58.3,54.5,29.53,North,0,1.6,5.4,87,0.00,,,0.00,WUHU216HW,2013-04-29 01:01:00,
2013-04-28 18:06:00,58.0,54.1,29.53,NNW,338,1.1,3.8,87,0.00,,,0.00,WUHU216HW,2013-04-29 01:06:00,
2013-04-28 18:11:00,57.8,53.9,29.53,WSW,248,1.6,3.8,87,0.00,,,0.00,WUHU216HW,2013-04-29 01:11:00,
2013-04-28 18:16:00,57.6,53.7,29.53,West,270,2.2,4.7,87,0.00,,,0.00,WUHU216HW,2013-04-29 01:16:00,
2013-04-28 18:21:00,57.2,53.4,29.53,West,270,2.5,4.7,87,0.00,,,0.00,WUHU216HW,2013-04-29 01:21:00,
2013-04-28 18:26:00,56.9,53.4,29.52,SSW,203,1.3,2.9,88,0.00,,,0.00,WUHU216HW,2013-04-29 01:26:00,
2013-04-28 18:31:00,56.9,53.4,29.52,West,270,2.5,3.1,88,0.00,,,0.00,WUHU216HW,2013-04-29 01:31:00,
2013-04-28 18:36:00,56.7,53.2,29.52,WSW,248,3.6,3.6,88,0.00,,,0.00,WUHU216HW,2013-04-29 01:36:00,
2013-04-28 18:41:00,56.5,53.0,29.52,WNW,293,0.4,3.6,88,0.00,,,0.00,WUHU216HW,2013-04-29 01:41:00,
2013-04-28 18:46:00,56.3,52.8,29.52,NW,315,2.5,3.6,88,0.00,,,0.00,WUHU216HW,2013-04-29 01:46:00,
2013-04-28 18:51:00,56.3,53.1,29.52,SW,225,0.9,4.0,89,0.00,,,0.00,WUHU216HW,2013-04-29 01:51:00,
2013-04-28 18:56:00,56.3,53.1,29.52,West,270,1.8,4.0,89,0.00,,,0.00,WUHU216HW,2013-04-29 01:56:00,
2013-04-28 19:01:00,56.2,52.9,29.52,NW,315,1.3,2.7,89,0.00,,,0.00,WUHU216HW,2013-04-29 02:01:00,
2013-04-28 19:06:00,56.2,52.9,29.52,WSW,248,0.4,2.7,89,0.00,,,0.00,WUHU216HW,2013-04-29 02:06:00,
2013-04-28 19:11:00,56.2,52.9,29.52,West,270,0.4,2.5,89,0.00,,,0.00,WUHU216HW,2013-04-29 02:11:00,
2013-04-28 19:16:00,56.2,52.9,29.52,WSW,248,1.6,2.5,89,0.00,,,0.00,WUHU216HW,2013-04-29 02:16:00,
2013-04-28 19:21:00,55.8,52.6,29.52,NNW,338,0.9,2.5,89,0.00,,,0.00,WUHU216HW,2013-04-29 02:21:00,
2013-04-28 19:26:00,55.6,52.4,29.52,SSW,203,1.6,2.2,89,0.00,,,0.00,WUHU216HW,2013-04-29 02:26:00,
2013-04-28 19:31:00,55.8,52.6,29.52,SW,225,0.9,2.2,89,0.00,,,0.00,WUHU216HW,2013-04-29 02:31:00,
2013-04-28 19:36:00,55.8,52.6,29.52,SW,225,0.7,2.0,89,0.00,,,0.00,WUHU216HW,2013-04-29 02:36:00,
2013-04-28 19:41:00,55.6,52.4,29.52,WSW,248,1.6,2.0,89,0.00,,,0.00,WUHU216HW,2013-04-29 02:41:00,
2013-04-28 19:46:00,55.6,52.4,29.52,West,270,0.0,1.8,89,0.00,,,0.00,WUHU216HW,2013-04-29 02:46:00,
2013-04-28 19:51:00,55.8,52.6,29.52,NW,315,0.7,2.2,89,0.00,,,0.00,WUHU216HW,2013-04-29 02:51:00,
2013-04-28 19:56:00,55.8,52.6,29.52,NNW,338,0.9,2.2,89,0.00,,,0.00,WUHU216HW,2013-04-29 02:56:00,
2013-04-28 20:01:00,55.8,52.9,29.52,NW,315,1.1,2.2,90,0.00,,,0.00,WUHU216HW,2013-04-29 03:01:00,
2013-04-28 20:06:00,55.8,52.9,29.52,WSW,248,1.1,2.2,90,0.00,,,0.00,WUHU216HW,2013-04-29 03:06:00,
2013-04-28 20:11:00,55.8,52.9,29.52,WSW,248,1.3,2.0,90,0.00,,,0.00,WUHU216HW,2013-04-29 03:11:00,
2013-04-28 20:16:00,55.8,52.9,29.52,West,270,0.9,2.0,90,0.00,,,0.00,WUHU216HW,2013-04-29 03:16:00,
2013-04-28 20:21:00,55.8,52.9,29.52,WSW,248,0.0,1.8,90,0.00,,,0.00,WUHU216HW,2013-04-29 03:21:00,
2013-04-28 20:26:00,55.8,52.9,29.52,NNW,338,2.0,2.0,90,0.00,,,0.00,WUHU216HW,2013-04-29 03:26:00,
2013-04-28 20:31:00,55.8,52.6,29.53,WSW,248,0.0,2.0,89,0.00,,,0.00,WUHU216HW,2013-04-29 03:31:00,
2013-04-28 20:36:00,55.8,52.9,29.53,West,270,0.7,2.0,90,0.00,,,0.00,WUHU216HW,2013-04-29 03:36:00,
2013-04-28 20:41:00,55.8,52.9,29.53,WSW,248,0.9,1.1,90,0.00,,,0.00,WUHU216HW,2013-04-29 03:41:00,
2013-04-28 20:46:00,55.8,52.9,29.53,SW,225,0.4,1.1,90,0.00,,,0.00,WUHU216HW,2013-04-29 03:46:00,
2013-04-28 20:51:00,55.8,52.9,29.53,WSW,248,1.1,1.1,90,0.00,,,0.00,WUHU216HW,2013-04-29 03:51:00,
2013-04-28 20:56:00,55.8,52.9,29.53,NNW,338,0.0,1.1,90,0.00,,,0.00,WUHU216HW,2013-04-29 03:56:00,
2013-04-28 21:01:00,55.8,52.9,29.53,NNW,338,1.1,1.1,90,0.00,,,0.00,WUHU216HW,2013-04-29 04:01:00,
2013-04-28 21:06:00,55.8,52.9,29.53,WSW,248,1.1,2.2,90,0.00,,,0.00,WUHU216HW,2013-04-29 04:06:00,
2013-04-28 21:11:00,55.8,52.9,29.53,SSW,203,0.2,2.2,90,0.00,,,0.00,WUHU216HW,2013-04-29 04:11:00,
2013-04-28 21:16:00,55.8,52.9,29.53,WSW,248,1.6,2.5,90,0.00,,,0.00,WUHU216HW,2013-04-29 04:16:00,
2013-04-28 21:21:00,55.8,52.9,29.53,SW,225,0.7,2.5,90,0.00,,,0.00,WUHU216HW,2013-04-29 04:21:00,
2013-04-28 21:26:00,56.0,52.7,29.53,WSW,248,2.2,3.1,89,0.00,,,0.00,WUHU216HW,2013-04-29 04:26:00,
2013-04-28 21:31:00,56.0,52.7,29.53,WSW,248,0.0,3.1,89,0.00,,,0.00,WUHU216HW,2013-04-29 04:31:00,
2013-04-28 21:36:00,55.8,52.6,29.54,WSW,248,0.0,2.2,89,0.00,,,0.00,WUHU216HW,2013-04-29 04:36:00,
2013-04-28 21:41:00,55.8,52.6,29.54,WSW,248,0.9,1.8,89,0.00,,,0.00,WUHU216HW,2013-04-29 04:41:00,
2013-04-28 21:46:00,55.8,52.9,29.54,SW,225,0.9,2.2,90,0.00,,,0.00,WUHU216HW,2013-04-29 04:46:00,
2013-04-28 21:51:00,55.8,52.6,29.54,SW,225,1.1,2.7,89,0.00,,,0.00,WUHU216HW,2013-04-29 04:51:00,
2013-04-28 21:56:00,55.8,52.9,29.54,WSW,248,1.6,2.7,90,0.00,,,0.00,WUHU216HW,2013-04-29 04:56:00,
2013-04-28 22:01:00,55.8,52.6,29.54,SSW,203,1.8,2.5,89,0.00,,,0.00,WUHU216HW,2013-04-29 05:01:00,
2013-04-28 22:06:00,55.6,52.4,29.54,West,270,1.1,2.5,89,0.00,,,0.00,WUHU216HW,2013-04-29 05:06:00,
2013-04-28 22:11:00,55.4,52.2,29.55,West,270,1.1,2.2,89,0.00,,,0.00,WUHU216HW,2013-04-29 05:11:00,
2013-04-28 22:16:00,55.3,52.4,29.54,NNW,338,0.0,1.1,90,0.00,,,0.00,WUHU216HW,2013-04-29 05:16:00,
2013-04-28 22:21:00,55.3,52.4,29.54,WSW,248,0.0,1.3,90,0.00,,,0.00,WUHU216HW,2013-04-29 05:21:00,
2013-04-28 22:26:00,55.3,52.4,29.54,SW,225,1.1,1.8,90,0.00,,,0.00,WUHU216HW,2013-04-29 05:26:00,
2013-04-28 22:31:00,55.3,52.4,29.54,NW,315,0.2,2.0,90,0.00,,,0.00,WUHU216HW,2013-04-29 05:31:00,
2013-04-28 22:36:00,55.1,52.2,29.54,NNW,338,0.0,2.0,90,0.00,,,0.00,WUHU216HW,2013-04-29 05:36:00,
2013-04-28 22:41:00,55.1,52.2,29.54,South,180,0.0,0.7,90,0.00,,,0.00,WUHU216HW,2013-04-29 05:41:00,
2013-04-28 22:46:00,55.3,52.4,29.54,SSW,203,1.6,2.9,90,0.00,,,0.00,WUHU216HW,2013-04-29 05:46:00,
2013-04-28 22:51:00,55.3,52.4,29.54,SW,225,0.4,2.9,90,0.00,,,0.00,WUHU216HW,2013-04-29 05:51:00,
2013-04-28 22:56:00,55.3,52.4,29.54,SSW,203,1.8,2.2,90,0.00,,,0.00,WUHU216HW,2013-04-29 05:56:00,
2013-04-28 23:01:00,55.4,52.6,29.55,South,180,1.1,3.4,90,0.00,,,0.00,WUHU216HW,2013-04-29 06:01:00,
2013-04-28 23:06:00,55.4,52.6,29.54,SW,225,0.9,3.4,90,0.00,,,0.00,WUHU216HW,2013-04-29 06:06:00,
2013-04-28 23:11:00,55.4,52.6,29.55,SW,225,1.3,1.8,90,0.00,,,0.00,WUHU216HW,2013-04-29 06:11:00,
2013-04-28 23:16:00,55.4,52.6,29.55,SSW,203,1.1,2.7,90,0.00,,,0.00,WUHU216HW,2013-04-29 06:16:00,
2013-04-28 23:21:00,55.4,52.6,29.55,WSW,248,0.0,2.7,90,0.00,,,0.00,WUHU216HW,2013-04-29 06:21:00,
2013-04-28 23:26:00,55.4,52.6,29.55,SW,225,0.0,2.2,90,0.00,,,0.00,WUHU216HW,2013-04-29 06:26:00,
2013-04-28 23:31:00,55.4,52.6,29.55,ENE,68,2.7,2.9,90,0.00,,,0.00,WUHU216HW,2013-04-29 06:31:00,
2013-04-28 23:36:00,55.1,52.5,29.55,ESE,113,2.9,2.9,91,0.00,,,0.00,WUHU216HW,2013-04-29 06:36:00,
2013-04-28 23:41:00,55.1,52.5,29.55,East,90,2.2,2.9,91,0.00,,,0.00,WUHU216HW,2013-04-29 06:41:00,
2013-04-28 23:46:00,55.1,52.5,29.55,South,180,1.8,2.9,91,0.00,,,0.00,WUHU216HW,2013-04-29 06:46:00,
2013-04-28 23:51:00,55.1,52.5,29.55,SE,135,1.1,2.2,91,0.00,,,0.00,WUHU216HW,2013-04-29 06:51:00,
2013-04-28 23:56:00,55.1,52.5,29.55,SE,135,1.1,2.7,91,0.00,,,0.00,WUHU216HW,2013-04-29 06:56:00,